Content
SEND FEEDBACK

Daily
Averages
Monthly
Summary
United States of America

CHESTERFIELD, MISSOURI


Home > North America > United States > Missouri
Elevation: 559 feet     Latitude: 38 41N     Longitude: 090 31W

WEATHER
 
SELECT A DAY
Number of Records: 203,416;   Date Range: 1/1/95 - 7/26/14
 
SHARE

PRINT THIS DATA

[ ← Previous Day ]
WEATHER ALMANAC - JANUARY 18, 2013
[ Next Day → ]
[ °C ]   °F
Weather ElementAverageHighLow
Temperature41.2 °F55 °F (2:51 pm)24.1 °F (2:51 am)
Dewpoint21.3 °F26.1 °F (10:51 pm)18 °F (2:51 am)
Humidity48.3 %78 % (3:51 am)27 % (2:51 pm)
Barometer30.34 in30.53 in (1:51 am)30.16 in (9:51 pm)
Wind Speed9.6 mph18.4 mph (2:51 pm)
Wind Gust23 mph (2:51 pm)
Weather ElementAverage
Visibility10 mi
Wind DirectionSSE (166.5 °)

Weather ElementTotal
Precipitation---
Heating Degree Days25.5 (Base 65)
Averaged from 23 records on January 18, 2013
WEATHER CONDITIONS BREAKOUT
WIND DIRECTION BREAKOUT
WEATHER BY HOUR - JANUARY 18, 2013
[ °C ]   °F
Local TimeTemperatureDewpointHumidityBarometerVisibilityWind DirectionWind SpeedGust SpeedPrecipitationEventsConditions
1:51 AM26.1 °F19.0 °F75 %30.53 in10.0 miCalmClear
2:51 AM24.1 °F18.0 °F77 %30.53 in10.0 miCalmClear
3:51 AM25.0 °F19.0 °F78 %30.52 in10.0 miCalmClear
4:51 AM27.0 °F18.0 °F69 %30.51 in10.0 miSSW (210°)6.9 mphClear
5:51 AM30.0 °F18.0 °F61 %30.50 in10.0 miSouth (190°)4.6 mphClear
6:51 AM30.0 °F18.0 °F61 %30.50 in10.0 miSouth (190°)4.6 mphClear
7:51 AM30.2 °F19.4 °F64 %30.46 in10.0 miSSW (200°)8.1 mphClear
8:51 AM35.1 °F19.9 °F54 %30.48 in10.0 miSouth (190°)5.8 mphClear
9:51 AM39.0 °F21.0 °F49 %30.47 in10.0 miSouth (190°)15.0 mphClear
10:51 AM44.1 °F21.9 °F42 %30.43 in10.0 miSouth (190°)10.4 mphPartly Cloudy
11:51 AM46.9 °F23.0 °F39 %30.38 in10.0 miSSW (210°)15.0 mphPartly Cloudy
12:51 PM50.0 °F23.0 °F35 %30.32 in10.0 miSouth (190°)11.5 mphPartly Cloudy
1:51 PM53.1 °F21.9 °F30 %30.28 in10.0 miSouth (190°)13.8 mphPartly Cloudy
2:51 PM55.0 °F21.0 °F27 %30.24 in10.0 miSSW (200°)18.4 mph23.0 mphPartly Cloudy
3:51 PM55.0 °F21.0 °F27 %30.22 in10.0 miSouth (180°)13.8 mphPartly Cloudy
4:51 PM53.1 °F21.9 °F30 %30.21 in10.0 miSouth (170°)12.7 mphPartly Cloudy
5:51 PM51.1 °F21.0 °F31 %30.20 in10.0 miSouth (180°)12.7 mph21.9 mphPartly Cloudy
6:51 PM50.0 °F21.0 °F32 %30.20 in10.0 miSouth (180°)13.8 mphClear
7:51 PM46.9 °F21.9 °F37 %30.19 in10.0 miSouth (170°)9.2 mphClear
8:51 PM46.0 °F24.1 °F42 %30.17 in10.0 miSouth (180°)10.4 mphClear
9:51 PM45.0 °F25.0 °F46 %30.16 in10.0 miSSW (200°)13.8 mphClear
10:51 PM43.0 °F26.1 °F51 %30.16 in10.0 miSSW (210°)11.5 mphClear
11:51 PM42.1 °F26.1 °F53 %30.16 in10.0 miSSW (210°)9.2 mphClear
Hourly data recorded from KSTL, located miles away from Chesterfield, Missouri







STORIES FROM OUR PARTNERS